Location: Bouillancy
(49.1149°N, 2.9308°E)
Time: 21:59:15
(UTC+00:00)

Cosmos 1125 Rocket - Pass Details

Date: 30 September 2020
Orbit: 758 x 780 km, 74.0° (Epoch: 24 October)

Event Time Altitude Azimuth Distance (km) Brightness Sun altitude
Rises 18:22:16 0° 210° (SSW) 3,251 7.1 -9.6°
Reaches altitude 10° 18:24:40 10° 213° (SSW) 2,328 6.4 -10.0°
Maximum altitude 18:29:56 66° 296° (WNW) 851 4.0 -10.9°
Drops below altitude 10° 18:35:14 10° 19° (NNE) 2,341 5.9 -11.7°
Sets 18:37:39 0° 22° (NNE) 3,271 6.6 -12.1°
